Weather in Guamka

Russia / Krasnodar Krai     44°13′52″N   39°54′08″E
temp.,
°C
wind,
m/s
gust,
m/s
humid.,
%
clouds,
%
prec.,
mm/h
press.,
hPa
HPBL,
m
13 april, tue
tue1300:00+5wsw0096100 3.9 102319
03:00+5ene0097100 4.1 102336
06:00+5nne1199100 0.2 102296
09:00+5nne1299100 0.3 1023196
12:00+6nne2297100 0.2 1022323
15:00+7nnw1296100 0.4 1022312
18:00+6nnw0199100 0.1 102289
21:00+6ene119999 0.2 102174
14 april, wed
wed1400:00+5nnw0098100 0.0 102017
03:00+5wsw1195100 0.0 102014
06:00+5s0094100 0.0 102028
09:00+8wnw1182100 0.0 1019402
12:00+12nnw336598 0.3 10171080
15:00+10n2276100 1.6 1017656
18:00+10ne118057 0.4 1017202
21:00+6s229279 0.5 101821
15 april, thu
thu1500:00+5s228262 0.0 101829
03:00+4s32795 0.0 101831
06:00+4s327275 0.0 101736
09:00+14n114029 0.0 1015708
12:00+16nnw343974 0.0 10151779
15:00+13nne116112 0.3 1016504
18:00+11n238095 1.1 101696
21:00+7sse229016 1.4 101824
16 april, fri
fri1600:00+6s22856 0.0 101726
03:00+6ssw2283100 0.0 101716
06:00+6s218268 0.0 101714
09:00+11e126995 0.6 1015451
12:00+8nnw2297100 1.4 1017250
15:00+8nnw229898 2.8 1017324
18:00+6n119997 0.9 1018154
21:00+6ene1110099 1.3 101995
17 april, sat
sat1700:00+6nnw12100100 2.9 1019140
03:00+6nnw11100100 6.7 1020119
06:00+5nnw11100100 0.9 1021145
09:00+6nne119799 1.2 1021235
12:00+7ne2190100 0.3 1021413
15:00+10nne1274100 0.9 1021808
18:00+8ene1287100 0.4 102089
21:00+6sse2194100 0.4 102121